SBVTSBRJ

Guest
Details From SBVT - Goiabeiras
To SBRJ - Santos-Dumont
Flight Number -
Tags decoded
Created
Modified
Stats Distance 235 nm / 435 km
Max Altitude 0 ft / 0 m
Waypoints 3
Social Downloads 0
Likes 0
Share VATSIM

Download

Looking for another format? Having issues loading an existing format? Contact us
Advertisement - Login to hide

Notes

Requested: SBVT SK MAC PCK SBRJ

Route

SBVT MAC SBRJ

ID Type Via Altitude Latitude Longitude Leg Dist Tot Dist Heading (true) Name
O SBVT APT - 0 ft / 0 m -20.25561˚ -40.28889˚ - 0 nm - Goiabeiras
MAC NDB - 0 ft / 0 m -22.34532˚ -41.76136˚ 150 nm 150 nm 213° / 214° MACAE NDB
O SBRJ APT - 0 ft / 0 m -22.91046˚ -43.16313˚ 84 nm 234 nm 246° / 247° Santos-Dumont

Altitude Profile

Advertisement - Login to hide

Weather


0- 5 10 15 20 25 30 35+ Temperature / ° C

Clouds and Precipitation
Forecast for 2018-05-22 18:00 UTC. Updated 3 hours ago

Ground ~20,000 ft ~40,000 ft Winds

SBVT

Details ICAO SBVT (VIX)
Name Goiabeiras
Region Brazil
Timezone America/Sao_Paulo (UTC-3.0)
Stats Elevation 11 ft / 3 m (AMSL)
Location -20.255611° -40.288893°
Runways 1
Magnetic Variation 23.828° W

METAR

SBVT 222000Z 13004KT 9999 FEW020 BKN040 24/20 Q1018

Decode

TAF

TAF SBVT 221600Z 2218/2318 16010KT 9999 SCT030 TN18/2306Z TX25/2316Z BECMG 2223/2224 30005KT BECMG 2311/2312 16010KT RMK PCN

Decode

Departure Runways

ID Width Length Bearing (true) Bearing (mag) Surface Threshold Offset Overrun Length
05 148 ft / 45 m 5,769 ft / 1,759 m 31.71° 55.54° Asphalt 0 ft / 0 m 189 ft / 58 m
23 148 ft / 45 m 5,769 ft / 1,759 m 211.71° 235.54° Asphalt 0 ft / 0 m 189 ft / 58 m

SBRJ

Details ICAO SBRJ (SDU)
Name Santos-Dumont
Region Brazil
Timezone Unknown (UTC+0.0)
Stats Elevation 11 ft / 3 m (AMSL)
Location -22.910460° -43.163133°
Runways 2
Magnetic Variation 22.825° W

METAR

SBRJ 222000Z 16007KT CAVOK 22/18 Q1016

Decode

TAF

TAF SBRJ 221500Z 2218/2306 17010KT CAVOK TX26/2218Z TN18/2306Z BECMG 2301/2303 34005KT FEW015 RMK PHD

Decode

Destination Runways

ID Width Length Bearing (true) Bearing (mag) Surface Threshold Offset Overrun Length
02L 98 ft / 30 m 4,154 ft / 1,266 m 358.02° 20.84° Asphalt 0 ft / 0 m 80 ft / 24 m
02R 138 ft / 42 m 4,361 ft / 1,329 m 358.01° 20.83° Asphalt 0 ft / 0 m 80 ft / 24 m
20L 138 ft / 42 m 4,361 ft / 1,329 m 178.01° 200.83° Asphalt 0 ft / 0 m 80 ft / 24 m
20R 98 ft / 30 m 4,154 ft / 1,266 m 178.02° 200.84° Asphalt 0 ft / 0 m 95 ft / 29 m

Approach Navaids

Runway Type Ident Frequency Range Bearing (true) Bearing (mag) Slope Elevation
20L Localiser IRJ 111.10 MHz 18 nm / 33 km 172.42° 195.25° - 11 ft / 3 m (AMSL)

Popular Alternatives